Date,TemperatureHighF,TemperatureAvgF,TemperatureLowF,DewpointHighF,DewpointAvgF,DewpointLowF,HumidityHigh,HumidityAvg,HumidityLow,PressureMaxIn,PressureMinIn,WindSpeedMaxMPH,WindSpeedAvgMPH,GustSpeedMaxMPH,PrecipitationSumIn
2013-4-1,49,43,36,41,27,17,76,55,32,30.06,29.73,18,5,18,0.00
2013-4-2,46,36,27,20,16,13,59,45,33,30.21,30.05,15,4,15,0.00
2013-4-3,46,36,26,28,17,14,67,48,30,30.39,30.19,14,3,15,0.00
2013-4-4,55,38,22,23,17,9,74,46,18,30.37,29.97,10,2,10,0.00
2013-4-5,56,43,30,35,25,20,69,50,36,30.19,29.94,14,2,14,0.00
2013-4-6,62,46,30,24,19,12,65,39,16,30.28,29.95,14,3,14,0.00
2013-4-7,73,63,52,48,38,17,55,41,24,30.00,29.86,21,7,21,0.00
2013-4-8,74,63,49,52,46,39,70,55,41,30.02,29.88,17,4,17,0.00
2013-4-9,83,71,55,58,53,47,77,56,40,30.11,29.91,17,4,17,0.00
2013-4-10,82,71,59,66,58,52,89,65,51,29.96,29.79,16,4,16,0.33
2013-4-11,68,61,57,61,57,53,91,86,76,29.92,29.56,12,3,15,0.08
2013-4-12,61,53,45,58,46,35,92,79,63,29.89,29.48,18,5,19,0.28
2013-4-13,52,46,40,37,35,32,72,65,55,30.05,29.88,16,5,16,0.00
2013-4-14,68,50,33,42,36,28,84,61,36,30.14,29.96,10,2,10,0.00
2013-4-15,68,61,51,52,47,39,72,59,49,30.06,29.92,19,6,19,0.00
2013-4-16,80,65,58,62,55,49,89,70,52,30.17,30.00,19,5,19,0.21
2013-4-17,68,59,52,57,53,48,91,80,66,30.25,30.05,10,3,10,0.04
2013-4-18,88,72,56,63,57,51,90,62,37,30.07,29.72,22,7,22,0.00
2013-4-19,77,58,43,60,46,31,86,64,48,29.91,29.46,29,9,29,0.24
2013-4-20,49,42,36,33,29,25,80,61,42,30.39,29.90,18,6,18,0.00
2013-4-21,57,45,28,31,26,22,81,50,30,30.57,30.37,13,2,13,0.00
2013-4-22,72,50,35,40,32,27,75,54,29,30.42,30.20,13,2,13,0.00
2013-4-23,74,66,41,43,39,28,67,39,31,30.21,29.91,18,4,18,0.00
2013-4-24,65,56,39,55,43,34,87,64,43,30.19,29.76,19,4,19,0.29
2013-4-25,58,46,34,43,35,29,86,67,42,30.35,30.19,12,3,19,0.04
2013-4-26,66,50,35,47,35,31,87,61,31,30.47,30.35,10,1,10,0.00
2013-4-27,75,57,37,44,35,29,81,50,21,30.37,30.11,13,2,13,0.00
2013-4-28,60,54,49,56,49,39,93,83,60,30.13,29.89,13,2,13,0.78
2013-4-29,66,59,54,59,55,51,93,86,74,30.01,29.90,8,2,8,0.05
2013-4-30,78,64,47,62,52,45,93,70,44,30.12,30.00,13,2,13,0.00